Regional Weather Roundup
Issued by NWS

Home | Current Version | Previous Version | Text Only | Print | Product List | Glossary On
Versions: 1 2 3 4 5 6 7 8 9 10 11 12 13 14 15 16 17 18 19 20 21 22 23 24 25 26 27
000
ASUS44 KJAN 202210
RWRMS

MISSISSIPPI HOURLY WEATHER ROUNDUP
NATIONAL WEATHER SERVICE JACKSON MS
400 PM CST MON NOV 20 2017

NOTE: "FAIR: INDICATES FEW OR NO CLOUDS BELOW 12,000 FEET WITH NO
SIGNIFICANT WEATHER AND/OR OBSTRUCTIONS TO VISIBILITY.

MSZ001>002-007>008-010>013-018>021-025>028-034>036-202300-
NORTHWEST MISSISSIPPI

CITY           SKY/WX    TMP DP  RH WIND       PRES   REMARKS
BATESVILLE     FAIR      53  24  31 S3        30.11F
CLARKSDALE       N/A     54  27  35 S7        30.11F
CLEVELAND      FAIR      54  26  34 S7        30.12R
GREENWOOD      CLOUDY    56  28  34 S5        30.11S
GREENVILLE     CLOUDY    55  26  32 S7        30.11S
OLIVE BRANCH   MOCLDY   N/A N/A N/A S6        30.06F
OXFORD         FAIR      52  25  35 S5        30.12S
TUNICA           N/A    N/A N/A N/A S6        30.11F
WINONA         FAIR      54  29  39 CALM      30.12R
$$

MSZ003>006-009-014>017-022>024-029>033-037>039-202300-
NORTHEAST MISSISSIPPI

CITY           SKY/WX    TMP DP  RH WIND       PRES   REMARKS
ABERDEEN       FAIR      54  37  54 CALM      30.13F
COLUMBUS AFB   CLOUDY    54  33  46 CALM      30.12S
CORINTH        FAIR      54  25  32 CALM      30.10F HAZE
GOLDN TRIANGLE CLOUDY    52  28  39 S7        30.13S
STARKVILLE     FAIR      52  30  43 S5        30.13F
TUPELO         CLEAR     53  26  35 SE5       30.11F
$$

MSZ040-058-202300-
CENTRAL MISSISSIPPI

CITY           SKY/WX    TMP DP  RH WIND       PRES   REMARKS
JACKSON INTL   CLOUDY    55  31  39 CALM      30.12F
JACKSON HAWKNS MOSUNNY   53  31  42 CALM      30.12F
MADISON        FAIR      52  30  43 CALM      30.12F
MERIDIAN KEY   PTCLDY    57  28  33 SW5       30.13S
MERIDIAN NAS   CLOUDY    56  30  37 CALM      30.14S
RAYMOND        FAIR      55  41  58 CALM      30.12F
VICKSBURG VKS  CLEAR     57  28  33 S6        30.13F
$$

MSZ059>079-202300-
SOUTH MISSISSIPPI

CITY           SKY/WX    TMP DP  RH WIND       PRES   REMARKS
COLUMBIA       DRIZZLE   55  32  41 CALM      30.16F
HATTIESBURG    CLEAR     57  34  41 S6        30.13F
LAUREL         FAIR      54  32  42 S6        30.15R
MCCOMB         SUNNY     56  33  42 SW5       30.12F
NATCHEZ        SUNNY     57  30  35 CALM      30.12F
PINE BELT      PTCLDY    54  36  50 CALM      30.13F
$$

MSZ080>082-202300-
COASTAL MISSISSIPPI

CITY           SKY/WX    TMP DP  RH WIND       PRES   REMARKS
BILOXI         SUNNY     56  40  55 CALM      30.13F
PASCAGOULA     CLEAR     58  42  55 W5        30.14S
GULFPORT       SUNNY     56  41  57 CALM      30.14S
$$

LAZ007>009-015>016-023>026-202300-
NORTHEAST LOUISIANA

CITY           SKY/WX    TMP DP  RH WIND       PRES   REMARKS
BASTROP        FAIR      55  25  31 SE3       30.12F
TALLULAH/VBURG CLOUDY    54  30  40 S3        30.12F
VIDALIA          N/A    N/A N/A N/A MISG      30.12S
$$




USA.gov is the U.S. government's official web portal to all federal, state and local government web resources and services.